User: anonymous   Login
Location: Heidgraben
(53.7081°N, 9.6576°E)
Time: 09:44:17
(UTC+00:00)
Language:

Iridium 2 - Orbit

View from above orbital plane
View from above orbital plane
View from above satellite
View from above satellite

Ground track
Ground track

The orbit data is extracted from the following two-line orbital elements,

1 25527U 98066A   20269.88911743 +.00001240 +00000-0 +57814-4 0  9996
2 25527 085.5305 044.5004 0009219 019.7959 340.3638 15.18757446199876
Epoch (UTC): 25 September 2020 21:20:19
Eccentricity: 0.0009219
inclination: 85.5305°
perigee height: 503 km
apogee height: 516 km
right ascension of ascending node: 44.5004°
argument of perigee: 19.7959°
revolutions per day: 15.18757446
mean anomaly at epoch: 340.3638°
orbit number at epoch: 19987

The dashed part of the orbit path shows where the satellite is in the earth's shadow,  

DLR